Overview Statistics Trail Chart Weather Telemetry Raw packets
 

This is the latest recevied weather packets stored in our database for station/object KC2GYU. If no packets are shown the sender has not sent any weather packets the latest 10 day(s).

<< 48 49 50 51 52 53 54 >>
Time Temp. Humidity Pressure Rain* Wind** Luminosity Snow
1777752058 15.56° C 59% 1010.7 hPa 0 mm - 207 W/m² -
1777751755 16.11° C 59% 1010.8 hPa 0 mm - 216 W/m² -
1777751451 16.11° C 59% 1010.7 hPa 0 mm - 209 W/m² -
1777751148 16.11° C 59% 1011.1 hPa 0 mm - 233 W/m² -
1777750844 16.67° C 58% 1011.1 hPa 0 mm - 265 W/m² -
1777750542 16.11° C 59% 1011 hPa 0 mm - 293 W/m² -
1777750238 16.67° C 59% 1010.8 hPa 0 mm - 314 W/m² -
1777749934 16.11° C 59% 1011.4 hPa 0 mm - 349 W/m² -
1777749632 16.11° C 60% 1011.4 hPa 0 mm - 383 W/m² -
1777749328 16.11° C 61% 1011.4 hPa 0 mm - 333 W/m² -
1777749026 16.11° C 63% 1011.4 hPa 0 mm - 347 W/m² -
1777748723 15.56° C 63% 1011.5 hPa 0 mm - 301 W/m² -
1777748420 15.56° C 63% 1011.5 hPa 0 mm - 275 W/m² -
1777748115 16.11° C 62% 1011.6 hPa 0 mm - 278 W/m² -
1777747812 16.11° C 63% 1011.6 hPa 0 mm - 332 W/m² -
1777747508 15.56° C 62% 1011.7 hPa 0 mm - 520 W/m² -
1777747204 15° C 65% 1011.8 hPa 0 mm - 416 W/m² -
1777746901 15° C 65% 1011.9 hPa 0 mm - 243 W/m² -
1777746595 15° C 67% 1012 hPa 0 mm - 214 W/m² -
1777746291 15° C 66% 1012.3 hPa 0 mm - 189 W/m² -
1777745988 15° C 66% 1012.1 hPa 0 mm - 173 W/m² -
1777745686 15° C 66% 1012.2 hPa 0 mm - 154 W/m² -
1777745385 15° C 69% 1012.4 hPa 0 mm - 183 W/m² -
1777745081 15° C 65% 1012.4 hPa 0 mm - 198 W/m² -
1777744777 15° C 65% 1012.2 hPa 0 mm - 176 W/m² -

* Rain latest hour (hover to see other rain measurements)
** Current wind speed in m/s (hover to see current wind gust speed)